168  
NZUS01 KABQ 210110  
RWRABQ  
NEW MEXICO REGIONAL WEATHER ROUNDUP  
NATIONAL WEATHER SERVICE ALBUQUERQUE NM  
700 PM MDT MON MAY 20 2024  
 
-----NORTHERN NEW MEXICO AND NEARBY AREAS-----  
 
 
CITY SKY/WX TMP DP RH WIND PRES REMARKS
 
ALBUQUERQUE PTSUNNY 81 23 11 W26G33 29.82R  
BELEN FAIR 83 21 10 W29G37 29.84R  
SOCORRO FAIR 86 21 9 SW20G30 29.84R  
 
CITY SKY/WX TMP DP RH WIND PRES REMARKS
 
SANTA FE CLOUDY 76 16 10 MISG 29.88S  
LOS ALAMOS CLOUDY 69 17 14 SW10G32 29.94R  
TAOS PTSUNNY 69 16 13 SW18 29.93F  
ANGEL FIRE PTSUNNY 60 17 18 SW10 30.01F  
FARMINGTON LGT RAIN 63 23 21 W17G38 29.93R  
GRANTS CLOUDY 61 21 21 W28G40 30.07R  
GALLUP CLOUDY 50 39 66 W14G23 30.08F  
FLAGSTAFF SUNNY 57 27 31 S24G37 30.02F  
DURANGO CLOUDY 57 29 34 W18G31 29.98R  
 
CITY SKY/WX TMP DP RH WIND PRES REMARKS
 
ALAMOSA MOSUNNY 61 22 22 W24G37 29.95R  
DENVER TSTM 60 51 72 N6 29.73F  
CLAYTON PTCLDY 82 18 9 S18G31 29.74F  
RATON SUNNY 77 18 11 SW20G30 29.81S  
LAS VEGAS MOSUNNY 71 19 14 W18G30 29.90F  
CLINES CORNERS PTSUNNY 70 20 15 SW14 29.93F  
SANTA ROSA MOSUNNY 85 15 7 SW13 29.75F  
TUCUMCARI CLEAR 86 21 9 W14 29.69F  
CLOVIS (AFB) CLEAR 92 11 5 SW18 29.74F  
CLOVIS CLEAR 90 23 9 S14 29.76F HAZE  
AMARILLO CLEAR 88 19 8 SW10 29.70S  
 
-----SOUTHERN NEW MEXICO AND NEARBY AREAS-----  
 
 
CITY SKY/WX TMP DP RH WIND PRES REMARKS
 
T OR C SUNNY 85 21 9 SW23G43 29.85S  
DEMING SUNNY 88 23 9 W23G38 29.85F  
TUCSON MOSUNNY 86 34 15 SW9 29.90F  
EL PASO MOSUNNY 95 19 6 W28G35 29.80F  
LAS CRUCES SUNNY 91 21 8 SW26G33 29.86S  
 
CITY SKY/WX TMP DP RH WIND PRES REMARKS
 
ALAMOGORDO MOSUNNY 90 18 7 SW20 29.84S  
RUIDOSO SUNNY 75 14 9 W40G48 30.00S  
ROSWELL PTCLDY 97 18 6 SW28G40 29.69S  
CARLSBAD MOCLDY 95 20 6 SW20 29.75S  
HOBBS MOCLDY 91 14 6 SW14 29.77R  
 
CLICK HERE TO GO TO PREVIOUS BULLETINS.

The Nexlab NM Page Main Text Page